Zurück zum Katalog

TURKSAT 4A

AktivKommunikationGEO
NORAD 39522·PAYLOAD·🇹🇷 Turkey

Gestartet Feb 14, 2014 von Baikonur Cosmodrome

Loading…

TLE

AktuellSource: Space-Track

Epoche: Sep 14, 2026, 14:00 UTC

1 39522U 14007A   26257.58342105  .00000138  00000-0  00000-0 0  9995
2 39522   0.0750 287.1872 0003391 317.5165   0.8807  1.00270547 45866

Verfolge TURKSAT 4A in Echtzeit mit AllMySat

Download on the App Store